Date String (YYYY-MM-DD hh:mm:ss) UTC,Instrument flags,absolute air pressure of the measurement (hPa),sample flow rate (lpm),inlet stack bypass flow (lpm),air temperature of the measurement (°C),ambient temperature measured by the external sensor (°C),aerosol sample conditioner tube jacket temperature (°C),OPC LED temperature (°C),internal box temperature (°C),relative humidity of the measurement (%),span deviation,mass concentration of particles derived from Lorenz-Mie calculation of OPC scattering (μg/m³),mass concentration of particles derived from Lorenz-Mie calculation of OPC scattering (μg/m³),mass concentration of particles derived from Lorenz-Mie calculation of OPC scattering (μg/m³)
DateTimeUTC,F1_M11,P_M11,Q1_M11,Q2_M11,T1_M11,T2_M11,T3_M11,T4_M11,T5_M11,U1_M11,ZSPAN_M11,X0_M11,X2_M11,X1_M11
2023-12-29 08:00:00,SystemResetWarning,0834.3,5.01,000.00,019.5,018.3,000.0,027.9,020.8,7.8,0000.0,0001.06,0000.72,0000.62
2023-12-29 08:01:00,SystemResetWarning,0834.4,5.01,000.00,019.5,018.3,000.0,027.9,020.8,7.9,0000.0,0001.10,0000.72,0000.62
2023-12-29 08:02:00,SystemResetWarning,0834.4,5.00,000.00,019.5,018.3,000.0,027.9,020.8,7.9,0000.0,0001.15,0000.72,0000.61
2023-12-29 08:03:00,SystemResetWarning,0834.4,4.99,000.00,019.5,018.3,000.0,027.8,020.8,7.9,0000.0,0001.16,0000.71,0000.61
2023-12-29 08:04:00,SystemResetWarning,0834.4,5.00,000.00,019.5,018.3,000.0,027.8,020.8,7.8,0000.0,0001.14,0000.70,0000.60
2023-12-29 08:05:00,SystemResetWarning,0834.4,5.00,000.00,019.5,018.3,000.0,027.8,020.8,7.8,0000.0,0001.15,0000.71,0000.60
2023-12-29 08:06:00,SystemResetWarning,0834.4,5.00,000.00,019.5,018.3,000.0,027.8,020.8,7.8,0000.0,0001.09,0000.70,0000.61
2023-12-29 08:07:00,SystemResetWarning,0834.3,5.00,000.00,019.5,018.3,000.0,027.8,020.8,7.8,0000.0,0001.02,0000.70,0000.61
2023-12-29 08:08:00,SystemResetWarning,0834.3,5.00,000.00,019.5,018.3,000.0,027.8,020.8,7.8,0000.0,0000.99,0000.71,0000.61
2023-12-29 08:09:00,SystemResetWarning,0834.4,5.00,000.00,019.4,018.3,000.0,027.8,020.7,7.8,0000.0,0000.93,0000.68,0000.60
2023-12-29 08:10:00,SystemResetWarning,0834.3,5.00,000.00,019.4,018.2,000.0,027.8,020.7,7.8,0000.0,0000.93,0000.67,0000.59
2023-12-29 08:11:00,SystemResetWarning,0834.3,5.00,000.00,019.4,018.2,000.0,027.8,020.7,7.7,0000.0,0000.96,0000.69,0000.59
2023-12-29 08:12:00,SystemResetWarning,0834.5,5.00,000.00,019.4,018.2,000.0,027.8,020.7,7.8,0000.0,0000.92,0000.69,0000.58
2023-12-29 08:13:00,SystemResetWarning,0834.4,5.01,000.00,019.4,018.2,000.0,027.8,020.7,7.7,0000.0,0000.88,0000.67,0000.56
2023-12-29 08:14:00,SystemResetWarning,0834.4,5.01,000.00,019.4,018.2,000.0,027.8,020.7,7.8,0000.0,0000.83,0000.66,0000.56
2023-12-29 08:15:00,SystemResetWarning,0834.3,5.00,000.00,019.4,018.2,000.0,027.8,020.7,7.8,0000.0,0000.82,0000.65,0000.55
2023-12-29 08:16:00,SystemResetWarning,0834.3,4.99,000.00,019.4,018.2,000.0,027.8,020.7,7.8,0000.0,0000.83,0000.65,0000.54
2023-12-29 08:17:00,SystemResetWarning,0834.3,5.00,000.00,019.4,018.2,000.0,027.8,020.7,7.8,0000.0,0000.83,0000.64,0000.53
2023-12-29 08:18:00,SystemResetWarning,0834.4,4.99,000.00,019.4,018.2,000.0,027.7,020.7,7.8,0000.0,0000.86,0000.65,0000.52
2023-12-29 08:19:00,SystemResetWarning,0834.3,4.99,000.00,019.4,018.2,000.0,027.7,020.7,7.8,0000.0,0000.82,0000.63,0000.51
2023-12-29 08:20:00,SystemResetWarning,0834.3,5.00,000.00,019.4,018.2,000.0,027.7,020.6,7.8,0000.0,0000.82,0000.62,0000.50
2023-12-29 08:21:00,SystemResetWarning,0834.3,5.01,000.00,019.3,018.2,000.0,027.7,020.6,7.8,0000.0,0000.83,0000.63,0000.50
2023-12-29 08:22:00,SystemResetWarning,0834.5,5.01,000.00,019.3,018.2,000.0,027.7,020.6,7.8,0000.0,0000.76,0000.59,0000.50
2023-12-29 08:23:00,SystemResetWarning,0834.3,5.00,000.00,019.3,018.2,000.0,027.7,020.6,7.8,0000.0,0000.71,0000.57,0000.50
2023-12-29 08:24:00,SystemResetWarning,0834.3,4.99,000.00,019.3,018.2,000.0,027.7,020.6,7.8,0000.0,0000.77,0000.59,0000.50
2023-12-29 08:25:00,SystemResetWarning,0834.4,4.99,000.00,019.3,018.1,000.0,027.7,020.6,7.8,0000.0,0000.82,0000.60,0000.50
2023-12-29 08:26:00,SystemResetWarning,0834.3,5.00,000.00,019.3,018.1,000.0,027.7,020.6,7.8,0000.0,0000.84,0000.61,0000.50
2023-12-29 08:27:00,SystemResetWarning,0834.3,5.01,000.00,019.3,018.1,000.0,027.7,020.6,7.8,0000.0,0000.82,0000.60,0000.50
2023-12-29 08:28:00,SystemResetWarning,0834.4,5.01,000.00,019.3,018.1,000.0,027.7,020.6,7.8,0000.0,0000.81,0000.59,0000.50
2023-12-29 08:29:00,SystemResetWarning,0834.4,5.01,000.00,019.3,018.1,000.0,027.7,020.6,7.8,0000.0,0000.78,0000.57,0000.49
2023-12-29 08:30:00,SystemResetWarning,0834.3,4.99,000.00,019.3,018.1,000.0,027.7,020.5,7.8,0000.0,0000.79,0000.57,0000.49
2023-12-29 08:31:00,SystemResetWarning,0834.4,4.99,000.00,019.3,018.1,000.0,027.7,020.5,7.7,0000.0,0000.80,0000.58,0000.50
2023-12-29 08:32:00,SystemResetWarning,0834.3,4.99,000.00,019.2,018.1,000.0,027.7,020.5,7.7,0000.0,0000.78,0000.57,0000.50
2023-12-29 08:33:00,SystemResetWarning,0834.5,5.00,000.00,019.2,018.1,000.0,027.6,020.5,7.6,0000.0,0000.77,0000.56,0000.49
2023-12-29 08:34:00,SystemResetWarning,0834.4,5.01,000.00,019.2,018.1,000.0,027.6,020.5,7.6,0000.0,0000.77,0000.56,0000.49
2023-12-29 08:35:00,SystemResetWarning,0834.3,5.01,000.00,019.2,018.1,000.0,027.6,020.5,7.7,0000.0,0000.68,0000.53,0000.48
2023-12-29 08:36:00,SystemResetWarning,0834.3,5.00,000.00,019.2,018.0,000.0,027.6,020.5,7.6,0000.0,0000.63,0000.51,0000.48
2023-12-29 08:37:00,SystemResetWarning,0834.3,5.00,000.00,019.2,018.0,000.0,027.6,020.5,7.6,0000.0,0000.62,0000.51,0000.47
2023-12-29 08:38:00,SystemResetWarning,0834.3,5.00,000.00,019.2,018.0,000.0,027.6,020.5,7.6,0000.0,0000.63,0000.51,0000.48
2023-12-29 08:39:00,SystemResetWarning,0834.3,5.00,000.00,019.2,018.0,000.0,027.6,020.5,7.6,0000.0,0000.66,0000.52,0000.47
2023-12-29 08:40:00,SystemResetWarning,0834.3,5.00,000.00,019.2,018.0,000.0,027.6,020.5,7.6,0000.0,0001.25,0000.50,0000.46
2023-12-29 08:41:00,SystemResetWarning,0834.3,5.00,000.00,019.2,018.0,000.0,027.6,020.4,7.5,0000.0,0002.22,0000.48,0000.45
2023-12-29 08:42:00,SystemResetWarning,0834.3,5.00,000.00,019.2,018.0,000.0,027.6,020.4,7.5,0000.0,0002.20,0000.47,0000.43
2023-12-29 08:43:00,SystemResetWarning,0834.3,4.99,000.00,019.2,017.9,000.0,027.5,020.5,7.6,0000.0,0002.20,0000.47,0000.43
2023-12-29 08:44:00,SystemResetWarning,0834.3,4.99,000.00,019.2,018.0,000.0,027.5,020.4,7.6,0000.0,0002.29,0000.47,0000.43
2023-12-29 08:45:00,SystemResetWarning,0834.6,5.01,000.00,019.1,017.9,000.0,027.5,020.4,7.6,0000.0,0002.35,0000.47,0000.42
2023-12-29 08:46:00,SystemResetWarning,0834.3,5.01,000.00,019.1,017.9,000.0,027.5,020.4,7.5,0000.0,0002.35,0000.47,0000.42
2023-12-29 08:47:00,SystemResetWarning,0834.3,4.99,000.00,019.1,017.9,000.0,027.5,020.4,7.5,0000.0,0002.33,0000.45,0000.41
2023-12-29 08:48:00,SystemResetWarning,0834.3,4.99,000.00,019.1,017.9,000.0,027.5,020.4,7.5,0000.0,0002.32,0000.44,0000.40
2023-12-29 08:49:00,SystemResetWarning,0834.3,4.99,000.00,019.1,017.9,000.0,027.5,020.4,7.4,0000.0,0002.29,0000.42,0000.39
2023-12-29 08:50:00,SystemResetWarning,0834.3,4.99,000.00,019.1,017.9,000.0,027.5,020.4,7.5,0000.0,0002.25,0000.41,0000.38
2023-12-29 08:51:00,SystemResetWarning,0834.3,4.99,000.00,019.1,017.9,000.0,027.5,020.3,7.5,0000.0,0001.61,0000.40,0000.37
2023-12-29 08:52:00,SystemResetWarning,0834.3,5.00,000.00,019.1,017.9,000.0,027.5,020.3,7.4,0000.0,0000.63,0000.40,0000.37
2023-12-29 08:53:00,SystemResetWarning,0834.3,5.01,000.00,019.1,017.9,000.0,027.5,020.3,7.4,0000.0,0001.28,0000.39,0000.36
2023-12-29 08:54:00,SystemResetWarning,0834.3,5.00,000.00,019.0,017.9,000.0,027.4,020.3,7.4,0000.0,0002.35,0000.38,0000.35
2023-12-29 08:55:00,SystemResetWarning,0834.3,5.00,000.00,019.0,017.9,000.0,027.4,020.3,7.4,0000.0,0002.25,0000.36,0000.34
2023-12-29 08:56:00,SystemResetWarning,0834.4,5.00,000.00,019.0,017.9,000.0,027.4,020.3,7.5,0000.0,0002.18,0000.35,0000.34
2023-12-29 08:57:00,SystemResetWarning,0834.4,5.00,000.00,019.0,017.9,000.0,027.4,020.3,7.4,0000.0,0002.16,0000.35,0000.34
2023-12-29 08:58:00,SystemResetWarning,0834.4,4.99,000.00,019.0,017.9,000.0,027.4,020.2,7.5,0000.0,0002.17,0000.35,0000.34
2023-12-29 08:59:00,SystemResetWarning,0834.4,4.99,000.00,019.0,017.8,000.0,027.4,020.3,7.6,0000.0,0002.16,0000.34,0000.33
